Time,TemperatureF,DewpointF,PressureIn,WindDirection,WindDirectionDegrees,WindSpeedMPH,WindSpeedGustMPH,Humidity,HourlyPrecipIn,Conditions,Clouds,dailyrainin,SolarRadiationWatts/m^2,SoftwareType,DateUTC
2013-01-02 00:00:00,31.3,19.4,29.99,North,355,8.0,8.0,61,0.00,,,0.00,0,Wunderground v.1.15,2013-01-02 05:00:00,
2013-01-02 00:04:00,31.1,19.2,29.99,NNW,327,3.0,8.0,61,0.00,,,0.00,0,Wunderground v.1.15,2013-01-02 05:04:00,
2013-01-02 00:05:00,31.1,19.2,29.99,NNE,32,8.0,8.0,61,0.00,,,0.00,0,Wunderground v.1.15,2013-01-02 05:05:00,
2013-01-02 00:07:00,31.0,18.7,29.99,NNE,12,0.0,8.0,60,0.00,,,0.00,0,Wunderground v.1.15,2013-01-02 05:07:00,
2013-01-02 00:13:00,30.8,18.9,29.99,North,11,3.0,5.0,61,0.00,,,0.00,0,Wunderground v.1.15,2013-01-02 05:13:00,
2013-01-02 00:19:00,30.7,18.4,29.98,NNE,32,2.0,8.0,60,0.00,,,0.00,0,Wunderground v.1.15,2013-01-02 05:19:00,
2013-01-02 00:25:00,30.5,18.3,29.98,North,355,12.0,12.0,60,0.00,,,0.00,0,Wunderground v.1.15,2013-01-02 05:25:00,
2013-01-02 00:31:00,30.4,17.8,29.99,North,10,4.0,4.0,59,0.00,,,0.00,0,Wunderground v.1.15,2013-01-02 05:31:00,
2013-01-02 00:37:00,30.3,17.7,29.99,NNW,346,0.0,6.0,59,0.00,,,0.00,0,Wunderground v.1.15,2013-01-02 05:37:00,
2013-01-02 00:43:00,30.2,17.6,29.98,North,5,7.0,7.0,59,0.00,,,0.00,0,Wunderground v.1.15,2013-01-02 05:43:00,
2013-01-02 00:49:00,30.1,17.5,29.98,North,360,6.0,7.0,59,0.00,,,0.00,0,Wunderground v.1.15,2013-01-02 05:49:00,
2013-01-02 00:55:00,30.0,17.0,29.98,NNE,31,0.0,7.0,58,0.00,,,0.00,0,Wunderground v.1.15,2013-01-02 05:55:00,
2013-01-02 01:00:00,29.9,16.9,29.98,NNW,333,3.0,4.0,58,0.00,,,0.00,0,Wunderground v.1.15,2013-01-02 06:00:00,
2013-01-02 01:06:00,29.9,17.3,29.98,North,350,3.0,8.0,59,0.00,,,0.00,0,Wunderground v.1.15,2013-01-02 06:06:00,
2013-01-02 01:11:00,29.7,16.7,29.98,North,5,0.0,3.0,58,0.00,,,0.00,0,Wunderground v.1.15,2013-01-02 06:11:00,
2013-01-02 01:16:00,29.7,16.7,29.98,North,355,7.0,7.0,58,0.00,,,0.00,0,Wunderground v.1.15,2013-01-02 06:16:00,
2013-01-02 01:22:00,29.5,16.5,29.98,NNW,346,6.0,6.0,58,0.00,,,0.00,0,Wunderground v.1.15,2013-01-02 06:22:00,
2013-01-02 01:28:00,29.4,16.0,29.97,NNW,330,5.0,11.0,57,0.00,,,0.00,0,Wunderground v.1.15,2013-01-02 06:28:00,
2013-01-02 01:34:00,29.3,15.5,29.98,NW,323,7.0,7.0,56,0.00,,,0.00,0,Wunderground v.1.15,2013-01-02 06:34:00,
2013-01-02 01:40:00,29.2,15.4,29.98,NNW,342,9.0,9.0,56,0.00,,,0.00,0,Wunderground v.1.15,2013-01-02 06:40:00,
2013-01-02 01:45:00,29.0,15.2,29.99,North,355,9.0,9.0,56,0.00,,,0.00,0,Wunderground v.1.15,2013-01-02 06:45:00,
2013-01-02 01:51:00,29.0,15.2,29.98,NNW,344,0.0,10.0,56,0.00,,,0.00,0,Wunderground v.1.15,2013-01-02 06:51:00,
2013-01-02 01:56:00,28.9,15.6,29.99,NNW,344,0.0,10.0,57,0.00,,,0.00,0,Wunderground v.1.15,2013-01-02 06:56:00,
2013-01-02 02:01:00,28.9,15.6,29.99,NW,325,5.0,5.0,57,0.00,,,0.00,0,Wunderground v.1.15,2013-01-02 07:01:00,
2013-01-02 02:06:00,28.8,15.5,29.99,North,5,6.0,12.0,57,0.00,,,0.00,0,Wunderground v.1.15,2013-01-02 07:06:00,
2013-01-02 02:11:00,28.8,15.5,29.99,NNW,334,0.0,8.0,57,0.00,,,0.00,0,Wunderground v.1.15,2013-01-02 07:11:00,
2013-01-02 02:16:00,28.7,15.4,29.99,North,360,4.0,10.0,57,0.00,,,0.00,0,Wunderground v.1.15,2013-01-02 07:16:00,
2013-01-02 02:21:00,28.7,15.8,29.99,North,360,6.0,7.0,58,0.00,,,0.00,0,Wunderground v.1.15,2013-01-02 07:21:00,
2013-01-02 02:26:00,28.5,15.6,30.00,North,351,3.0,11.0,58,0.00,,,0.00,0,Wunderground v.1.15,2013-01-02 07:26:00,
2013-01-02 02:31:00,28.5,15.6,30.00,NNW,347,7.0,12.0,58,0.00,,,0.00,0,Wunderground v.1.15,2013-01-02 07:31:00,
2013-01-02 02:36:00,28.5,15.6,29.99,NNE,22,4.0,12.0,58,0.00,,,0.00,0,Wunderground v.1.15,2013-01-02 07:36:00,
2013-01-02 02:41:00,28.4,15.5,30.00,NNW,348,5.0,6.0,58,0.00,,,0.00,0,Wunderground v.1.15,2013-01-02 07:41:00,
2013-01-02 02:46:00,28.4,15.9,30.00,NNE,24,5.0,9.0,59,0.00,,,0.00,0,Wunderground v.1.15,2013-01-02 07:46:00,
2013-01-02 02:51:00,28.4,15.9,30.00,North,355,2.0,5.0,59,0.00,,,0.00,0,Wunderground v.1.15,2013-01-02 07:51:00,
2013-01-02 02:57:00,28.3,15.8,29.99,NNE,13,5.0,7.0,59,0.00,,,0.00,0,Wunderground v.1.15,2013-01-02 07:57:00,
2013-01-02 03:02:00,28.3,15.8,29.99,NNW,340,7.0,7.0,59,0.00,,,0.00,0,Wunderground v.1.15,2013-01-02 08:02:00,
2013-01-02 03:07:00,28.2,15.7,30.00,North,5,2.0,10.0,59,0.00,,,0.00,0,Wunderground v.1.15,2013-01-02 08:07:00,
2013-01-02 03:12:00,28.1,15.6,30.00,NNE,17,2.0,8.0,59,0.00,,,0.00,0,Wunderground v.1.15,2013-01-02 08:12:00,
2013-01-02 03:17:00,28.1,15.6,30.00,NNE,17,3.0,9.0,59,0.00,,,0.00,0,Wunderground v.1.15,2013-01-02 08:17:00,
2013-01-02 03:22:00,28.0,15.9,30.00,North,11,0.0,8.0,60,0.00,,,0.00,0,Wunderground v.1.15,2013-01-02 08:22:00,
2013-01-02 03:27:00,28.0,15.5,29.99,NNE,16,5.0,10.0,59,0.00,,,0.00,0,Wunderground v.1.15,2013-01-02 08:27:00,
2013-01-02 03:32:00,27.9,15.8,30.00,North,5,0.0,8.0,60,0.00,,,0.00,0,Wunderground v.1.15,2013-01-02 08:32:00,
2013-01-02 03:37:00,27.9,15.8,30.00,North,5,4.0,8.0,60,0.00,,,0.00,0,Wunderground v.1.15,2013-01-02 08:37:00,
2013-01-02 03:42:00,27.9,15.8,30.00,North,11,4.0,5.0,60,0.00,,,0.00,0,Wunderground v.1.15,2013-01-02 08:42:00,
2013-01-02 03:47:00,27.8,16.1,30.00,NNW,348,2.0,6.0,61,0.00,,,0.00,0,Wunderground v.1.15,2013-01-02 08:47:00,
2013-01-02 03:52:00,27.8,16.1,30.00,North,5,1.0,5.0,61,0.00,,,0.00,0,Wunderground v.1.15,2013-01-02 08:52:00,
2013-01-02 03:57:00,27.8,16.1,30.00,North,355,0.0,6.0,61,0.00,,,0.00,0,Wunderground v.1.15,2013-01-02 08:57:00,
2013-01-02 04:02:00,27.7,16.0,29.99,North,360,7.0,7.0,61,0.00,,,0.00,0,Wunderground v.1.15,2013-01-02 09:02:00,
2013-01-02 04:07:00,27.6,15.9,29.99,NNW,346,4.0,8.0,61,0.00,,,0.00,0,Wunderground v.1.15,2013-01-02 09:07:00,
2013-01-02 04:12:00,27.6,15.9,30.00,North,355,6.0,9.0,61,0.00,,,0.00,0,Wunderground v.1.15,2013-01-02 09:12:00,
2013-01-02 04:17:00,27.6,15.9,30.00,NNE,16,0.0,9.0,61,0.00,,,0.00,0,Wunderground v.1.15,2013-01-02 09:17:00,
2013-01-02 04:22:00,27.5,16.2,30.00,North,9,2.0,3.0,62,0.00,,,0.00,0,Wunderground v.1.15,2013-01-02 09:22:00,
2013-01-02 04:27:00,27.5,16.2,30.00,North,5,0.0,8.0,62,0.00,,,0.00,0,Wunderground v.1.15,2013-01-02 09:27:00,
2013-01-02 04:32:00,27.4,16.1,30.00,NNE,20,2.0,10.0,62,0.00,,,0.00,0,Wunderground v.1.15,2013-01-02 09:32:00,
2013-01-02 04:37:00,27.4,16.1,30.00,NNE,16,4.0,10.0,62,0.00,,,0.00,0,Wunderground v.1.15,2013-01-02 09:37:00,
2013-01-02 04:42:00,27.3,16.0,29.99,North,9,7.0,13.0,62,0.00,,,0.00,0,Wunderground v.1.15,2013-01-02 09:42:00,
2013-01-02 04:47:00,27.2,15.9,29.99,NNE,20,7.0,13.0,62,0.00,,,0.00,0,Wunderground v.1.15,2013-01-02 09:47:00,
2013-01-02 04:52:00,27.1,15.8,30.00,NNE,12,12.0,12.0,62,0.00,,,0.00,0,Wunderground v.1.15,2013-01-02 09:52:00,
2013-01-02 04:57:00,27.0,15.7,30.00,NE,36,7.0,15.0,62,0.00,,,0.00,0,Wunderground v.1.15,2013-01-02 09:57:00,
2013-01-02 05:02:00,26.9,16.0,29.99,NE,38,1.0,11.0,63,0.00,,,0.00,0,Wunderground v.1.15,2013-01-02 10:02:00,
2013-01-02 05:07:00,26.9,16.0,30.00,NE,34,10.0,11.0,63,0.00,,,0.00,0,Wunderground v.1.15,2013-01-02 10:07:00,
2013-01-02 05:12:00,26.8,15.9,30.01,NNW,346,0.0,8.0,63,0.00,,,0.00,0,Wunderground v.1.15,2013-01-02 10:12:00,
2013-01-02 05:17:00,26.7,15.8,30.00,North,360,12.0,12.0,63,0.00,,,0.00,0,Wunderground v.1.15,2013-01-02 10:17:00,
2013-01-02 05:22:00,26.6,15.3,30.00,North,5,10.0,10.0,62,0.00,,,0.00,0,Wunderground v.1.15,2013-01-02 10:22:00,
2013-01-02 05:27:00,26.5,15.6,30.01,North,9,6.0,11.0,63,0.00,,,0.00,0,Wunderground v.1.15,2013-01-02 10:27:00,
2013-01-02 05:33:00,26.4,15.1,30.01,NNE,15,7.0,10.0,62,0.00,,,0.00,0,Wunderground v.1.15,2013-01-02 10:33:00,
2013-01-02 05:38:00,26.3,15.0,30.01,NE,38,2.0,12.0,62,0.00,,,0.00,0,Wunderground v.1.15,2013-01-02 10:38:00,
2013-01-02 05:43:00,26.3,15.0,30.01,NNE,31,5.0,9.0,62,0.00,,,0.00,0,Wunderground v.1.15,2013-01-02 10:43:00,
2013-01-02 05:48:00,26.2,15.3,30.01,North,360,6.0,9.0,63,0.00,,,0.00,0,Wunderground v.1.15,2013-01-02 10:48:00,
2013-01-02 05:53:00,26.2,14.9,30.02,NNW,347,6.0,9.0,62,0.00,,,0.00,0,Wunderground v.1.15,2013-01-02 10:53:00,
2013-01-02 05:58:00,26.2,15.3,30.02,NNE,22,0.0,9.0,63,0.00,,,0.00,0,Wunderground v.1.15,2013-01-02 10:58:00,
2013-01-02 06:03:00,26.1,15.2,30.02,NE,40,4.0,9.0,63,0.00,,,0.00,0,Wunderground v.1.15,2013-01-02 11:03:00,
2013-01-02 06:08:00,26.1,15.2,30.01,North,360,2.0,9.0,63,0.00,,,0.00,0,Wunderground v.1.15,2013-01-02 11:08:00,
2013-01-02 06:13:00,26.1,15.2,30.02,North,5,5.0,8.0,63,0.00,,,0.00,0,Wunderground v.1.15,2013-01-02 11:13:00,
2013-01-02 06:18:00,26.1,15.2,30.02,NNW,343,3.0,8.0,63,0.00,,,0.00,0,Wunderground v.1.15,2013-01-02 11:18:00,
2013-01-02 06:23:00,26.0,14.8,30.02,NNE,13,5.0,7.0,62,0.00,,,0.00,0,Wunderground v.1.15,2013-01-02 11:23:00,
2013-01-02 06:28:00,26.0,14.4,30.01,North,355,3.0,11.0,61,0.00,,,0.00,0,Wunderground v.1.15,2013-01-02 11:28:00,
2013-01-02 06:33:00,25.9,14.3,30.02,NNW,338,8.0,8.0,61,0.00,,,0.00,0,Wunderground v.1.15,2013-01-02 11:33:00,
2013-01-02 06:38:00,25.9,13.9,30.01,NNE,25,5.0,17.0,60,0.00,,,0.00,0,Wunderground v.1.15,2013-01-02 11:38:00,
2013-01-02 06:43:00,25.9,13.9,30.01,NNW,342,2.0,14.0,60,0.00,,,0.00,0,Wunderground v.1.15,2013-01-02 11:43:00,
2013-01-02 06:48:00,25.9,13.9,30.01,NNE,13,2.0,14.0,60,0.00,,,0.00,0,Wunderground v.1.15,2013-01-02 11:48:00,
2013-01-02 06:53:00,25.8,13.8,30.02,NNW,342,2.0,10.0,60,0.00,,,0.00,0,Wunderground v.1.15,2013-01-02 11:53:00,
2013-01-02 06:58:00,25.8,13.8,30.01,North,350,1.0,10.0,60,0.00,,,0.00,0,Wunderground v.1.15,2013-01-02 11:58:00,
2013-01-02 07:03:00,25.8,13.8,30.02,NNE,18,3.0,10.0,60,0.00,,,0.00,0,Wunderground v.1.15,2013-01-02 12:03:00,
2013-01-02 07:08:00,25.8,14.2,30.02,NNE,12,4.0,10.0,61,0.00,,,0.00,0,Wunderground v.1.15,2013-01-02 12:08:00,
2013-01-02 07:13:00,25.8,13.8,30.03,North,5,1.0,6.0,60,0.00,,,0.00,0,Wunderground v.1.15,2013-01-02 12:13:00,
2013-01-02 07:18:00,25.8,14.2,30.03,North,5,4.0,6.0,61,0.00,,,0.00,0,Wunderground v.1.15,2013-01-02 12:18:00,
2013-01-02 07:23:00,25.7,13.7,30.03,NNW,346,5.0,9.0,60,0.00,,,0.00,0,Wunderground v.1.15,2013-01-02 12:23:00,
2013-01-02 07:28:00,25.7,13.7,30.03,NNE,13,1.0,9.0,60,0.00,,,0.00,5,Wunderground v.1.15,2013-01-02 12:28:00,
2013-01-02 07:33:00,25.7,14.1,30.03,North,355,0.0,4.0,61,0.00,,,0.00,9,Wunderground v.1.15,2013-01-02 12:33:00,
2013-01-02 07:38:00,25.7,14.1,30.03,NNE,13,4.0,7.0,61,0.00,,,0.00,12,Wunderground v.1.15,2013-01-02 12:38:00,
2013-01-02 07:43:00,25.7,14.1,30.04,North,351,3.0,8.0,61,0.00,,,0.00,16,Wunderground v.1.15,2013-01-02 12:43:00,
2013-01-02 07:48:00,25.7,14.1,30.04,North,355,4.0,8.0,61,0.00,,,0.00,21,Wunderground v.1.15,2013-01-02 12:48:00,
2013-01-02 07:53:00,25.7,14.1,30.04,North,355,0.0,5.0,61,0.00,,,0.00,25,Wunderground v.1.15,2013-01-02 12:53:00,
2013-01-02 07:58:00,25.7,14.1,30.04,North,355,3.0,5.0,61,0.00,,,0.00,30,Wunderground v.1.15,2013-01-02 12:58:00,
2013-01-02 08:03:00,25.7,14.1,30.04,North,355,0.0,7.0,61,0.00,,,0.00,40,Wunderground v.1.15,2013-01-02 13:03:00,
2013-01-02 08:08:00,25.7,14.1,30.04,NNW,333,2.0,7.0,61,0.00,,,0.00,42,Wunderground v.1.15,2013-01-02 13:08:00,
2013-01-02 08:13:00,25.8,14.2,30.05,NNW,340,0.0,2.0,61,0.00,,,0.00,49,Wunderground v.1.15,2013-01-02 13:13:00,
2013-01-02 08:18:00,25.8,14.6,30.04,NW,324,1.0,3.0,62,0.00,,,0.00,53,Wunderground v.1.15,2013-01-02 13:18:00,
2013-01-02 08:24:00,25.9,14.7,30.04,NNW,328,0.0,3.0,62,0.00,,,0.00,54,Wunderground v.1.15,2013-01-02 13:24:00,
2013-01-02 08:29:00,26.0,14.8,30.05,NNW,330,0.0,3.0,62,0.00,,,0.00,69,Wunderground v.1.15,2013-01-02 13:29:00,
2013-01-02 08:34:00,26.1,14.8,30.05,NNW,341,0.0,3.0,62,0.00,,,0.00,77,Wunderground v.1.15,2013-01-02 13:34:00,
2013-01-02 08:39:00,26.2,14.6,30.06,North,10,4.0,6.0,61,0.00,,,0.00,90,Wunderground v.1.15,2013-01-02 13:39:00,
2013-01-02 08:44:00,26.3,14.7,30.06,NNW,342,0.0,3.0,61,0.00,,,0.00,86,Wunderground v.1.15,2013-01-02 13:44:00,
2013-01-02 08:49:00,26.5,14.9,30.06,North,5,4.0,4.0,61,0.00,,,0.00,114,Wunderground v.1.15,2013-01-02 13:49:00,
2013-01-02 08:54:00,26.6,14.9,30.06,North,5,1.0,7.0,61,0.00,,,0.00,104,Wunderground v.1.15,2013-01-02 13:54:00,
2013-01-02 08:59:00,26.7,14.7,30.06,North,360,5.0,7.0,60,0.00,,,0.00,114,Wunderground v.1.15,2013-01-02 13:59:00,
2013-01-02 09:04:00,26.8,15.1,30.06,North,350,2.0,5.0,61,0.00,,,0.00,118,Wunderground v.1.15,2013-01-02 14:04:00,
2013-01-02 09:09:00,27.0,15.3,30.06,NW,323,2.0,5.0,61,0.00,,,0.00,121,Wunderground v.1.15,2013-01-02 14:09:00,
2013-01-02 09:14:00,27.2,15.5,30.06,North,5,0.0,4.0,61,0.00,,,0.00,130,Wunderground v.1.15,2013-01-02 14:14:00,
2013-01-02 09:19:00,27.5,15.8,30.06,NNW,331,0.0,9.0,61,0.00,,,0.00,127,Wunderground v.1.15,2013-01-02 14:19:00,
2013-01-02 09:24:00,27.6,15.9,30.06,NNW,327,5.0,7.0,61,0.00,,,0.00,127,Wunderground v.1.15,2013-01-02 14:24:00,
2013-01-02 09:29:00,27.7,15.6,30.07,NW,311,8.0,11.0,60,0.00,,,0.00,139,Wunderground v.1.15,2013-01-02 14:29:00,
2013-01-02 09:34:00,27.8,15.7,30.07,NW,315,4.0,8.0,60,0.00,,,0.00,144,Wunderground v.1.15,2013-01-02 14:34:00,
2013-01-02 09:39:00,27.9,15.8,30.07,North,5,1.0,12.0,60,0.00,,,0.00,190,Wunderground v.1.15,2013-01-02 14:39:00,
2013-01-02 09:44:00,28.1,15.6,30.07,NNW,343,5.0,10.0,59,0.00,,,0.00,209,Wunderground v.1.15,2013-01-02 14:44:00,
2013-01-02 09:49:00,28.4,15.9,30.08,North,355,0.0,10.0,59,0.00,,,0.00,241,Wunderground v.1.15,2013-01-02 14:49:00,
2013-01-02 09:54:00,28.5,15.6,30.08,North,350,1.0,9.0,58,0.00,,,0.00,246,Wunderground v.1.15,2013-01-02 14:54:00,
2013-01-02 09:59:00,28.8,15.9,30.08,NNW,336,5.0,10.0,58,0.00,,,0.00,223,Wunderground v.1.15,2013-01-02 14:59:00,
2013-01-02 10:04:00,29.2,16.2,30.08,North,11,2.0,6.0,58,0.00,,,0.00,288,Wunderground v.1.15,2013-01-02 15:04:00,
2013-01-02 10:09:00,29.6,16.6,30.08,NNW,333,4.0,6.0,58,0.00,,,0.00,288,Wunderground v.1.15,2013-01-02 15:09:00,
2013-01-02 10:14:00,30.2,17.2,30.08,NNW,334,1.0,11.0,58,0.00,,,0.00,367,Wunderground v.1.15,2013-01-02 15:14:00,
2013-01-02 10:19:00,30.3,16.0,30.08,NNW,346,9.0,11.0,55,0.00,,,0.00,385,Wunderground v.1.15,2013-01-02 15:19:00,
2013-01-02 10:24:00,30.5,16.2,30.08,NNW,344,7.0,12.0,55,0.00,,,0.00,316,Wunderground v.1.15,2013-01-02 15:24:00,
2013-01-02 10:29:00,30.5,16.2,30.08,North,9,2.0,12.0,55,0.00,,,0.00,385,Wunderground v.1.15,2013-01-02 15:29:00,
2013-01-02 10:34:00,30.7,16.4,30.08,North,351,0.0,15.0,55,0.00,,,0.00,313,Wunderground v.1.15,2013-01-02 15:34:00,
2013-01-02 10:39:00,31.0,16.3,30.08,NW,326,7.0,20.0,54,0.00,,,0.00,246,Wunderground v.1.15,2013-01-02 15:39:00,
2013-01-02 10:44:00,31.0,16.3,30.08,North,360,5.0,14.0,54,0.00,,,0.00,274,Wunderground v.1.15,2013-01-02 15:44:00,
2013-01-02 10:49:00,31.1,16.8,30.07,NW,324,0.0,14.0,55,0.00,,,0.00,436,Wunderground v.1.15,2013-01-02 15:49:00,
2013-01-02 10:54:00,31.4,16.7,30.07,North,355,7.0,13.0,54,0.00,,,0.00,475,Wunderground v.1.15,2013-01-02 15:54:00,
2013-01-02 10:59:00,31.5,16.7,30.07,NNW,333,0.0,13.0,54,0.00,,,0.00,512,Wunderground v.1.15,2013-01-02 15:59:00,
2013-01-02 11:04:00,32.0,17.2,30.07,NNW,336,6.0,14.0,54,0.00,,,0.00,538,Wunderground v.1.15,2013-01-02 16:04:00,
2013-01-02 11:09:00,32.3,17.5,30.06,NE,40,4.0,4.0,54,0.00,,,0.00,301,Wunderground v.1.15,2013-01-02 16:09:00,
2013-01-02 11:15:00,32.4,17.2,30.06,NNE,13,4.0,14.0,53,0.00,,,0.00,497,Wunderground v.1.15,2013-01-02 16:15:00,
2013-01-02 11:20:00,32.4,17.2,30.06,NNW,343,0.0,5.0,53,0.00,,,0.00,309,Wunderground v.1.15,2013-01-02 16:20:00,
2013-01-02 11:25:00,32.5,17.2,30.06,NW,319,7.0,13.0,53,0.00,,,0.00,403,Wunderground v.1.15,2013-01-02 16:25:00,
2013-01-02 11:30:00,32.3,17.1,30.06,NNW,331,6.0,6.0,53,0.00,,,0.00,473,Wunderground v.1.15,2013-01-02 16:30:00,
2013-01-02 11:35:00,32.6,16.9,30.05,North,360,4.0,17.0,52,0.00,,,0.00,408,Wunderground v.1.15,2013-01-02 16:35:00,
2013-01-02 11:40:00,33.0,17.3,30.04,NNW,336,2.0,7.0,52,0.00,,,0.00,499,Wunderground v.1.15,2013-01-02 16:40:00,
2013-01-02 11:45:00,33.3,18.0,30.04,NNE,15,9.0,11.0,53,0.00,,,0.00,396,Wunderground v.1.15,2013-01-02 16:45:00,
2013-01-02 11:50:00,33.6,17.4,30.03,NNW,340,6.0,6.0,51,0.00,,,0.00,548,Wunderground v.1.15,2013-01-02 16:50:00,
2013-01-02 11:55:00,33.8,17.6,30.03,NNE,16,4.0,16.0,51,0.00,,,0.00,443,Wunderground v.1.15,2013-01-02 16:55:00,
2013-01-02 12:00:00,33.7,17.5,30.03,NNW,343,16.0,16.0,51,0.00,,,0.00,415,Wunderground v.1.15,2013-01-02 17:00:00,
2013-01-02 12:05:00,33.8,17.6,30.03,NNW,331,3.0,18.0,51,0.00,,,0.00,243,Wunderground v.1.15,2013-01-02 17:05:00,
2013-01-02 12:10:00,34.1,18.3,30.03,North,9,13.0,13.0,52,0.00,,,0.00,279,Wunderground v.1.15,2013-01-02 17:10:00,
2013-01-02 12:15:00,34.3,18.0,30.02,NNW,328,11.0,13.0,51,0.00,,,0.00,292,Wunderground v.1.15,2013-01-02 17:15:00,
2013-01-02 12:20:00,34.3,18.0,30.02,NNW,337,8.0,10.0,51,0.00,,,0.00,387,Wunderground v.1.15,2013-01-02 17:20:00,
2013-01-02 12:25:00,34.3,18.5,30.02,NNW,342,1.0,13.0,52,0.00,,,0.00,492,Wunderground v.1.15,2013-01-02 17:25:00,
2013-01-02 12:30:00,34.5,18.2,30.02,North,355,7.0,7.0,51,0.00,,,0.00,503,Wunderground v.1.15,2013-01-02 17:30:00,
2013-01-02 12:35:00,34.8,18.9,30.02,NW,318,2.0,11.0,52,0.00,,,0.00,404,Wunderground v.1.15,2013-01-02 17:35:00,
2013-01-02 12:40:00,34.7,18.4,30.02,NW,323,7.0,11.0,51,0.00,,,0.00,455,Wunderground v.1.15,2013-01-02 17:40:00,
2013-01-02 12:45:00,34.4,18.1,30.02,North,360,4.0,12.0,51,0.00,,,0.00,464,Wunderground v.1.15,2013-01-02 17:45:00,
2013-01-02 12:50:00,34.7,18.4,30.01,North,9,2.0,5.0,51,0.00,,,0.00,508,Wunderground v.1.15,2013-01-02 17:50:00,
2013-01-02 12:55:00,35.0,18.7,30.01,NW,311,5.0,15.0,51,0.00,,,0.00,504,Wunderground v.1.15,2013-01-02 17:55:00,
2013-01-02 13:00:00,35.0,18.7,30.01,NNW,329,7.0,13.0,51,0.00,,,0.00,494,Wunderground v.1.15,2013-01-02 18:00:00,
2013-01-02 13:05:00,34.9,18.1,30.02,NW,321,3.0,16.0,50,0.00,,,0.00,489,Wunderground v.1.15,2013-01-02 18:05:00,
2013-01-02 13:10:00,34.7,18.4,30.01,NNW,341,3.0,7.0,51,0.00,,,0.00,480,Wunderground v.1.15,2013-01-02 18:10:00,
2013-01-02 13:15:00,34.5,18.7,30.02,NNW,332,5.0,15.0,52,0.00,,,0.00,473,Wunderground v.1.15,2013-01-02 18:15:00,
2013-01-02 13:20:00,34.5,18.7,30.02,NW,304,7.0,11.0,52,0.00,,,0.00,468,Wunderground v.1.15,2013-01-02 18:20:00,
2013-01-02 13:25:00,34.3,18.5,30.01,NNW,334,6.0,14.0,52,0.00,,,0.00,455,Wunderground v.1.15,2013-01-02 18:25:00,
2013-01-02 13:31:00,34.4,19.0,30.02,North,9,2.0,9.0,53,0.00,,,0.00,445,Wunderground v.1.15,2013-01-02 18:31:00,
2013-01-02 13:36:00,34.7,19.3,30.02,NW,312,9.0,17.0,53,0.00,,,0.00,432,Wunderground v.1.15,2013-01-02 18:36:00,
2013-01-02 13:41:00,34.6,18.8,30.02,NNW,348,5.0,14.0,52,0.00,,,0.00,427,Wunderground v.1.15,2013-01-02 18:41:00,
2013-01-02 13:46:00,34.8,18.9,30.02,NNW,333,4.0,14.0,52,0.00,,,0.00,294,Wunderground v.1.15,2013-01-02 18:46:00,
2013-01-02 13:51:00,35.0,19.1,30.02,NNW,327,4.0,12.0,52,0.00,,,0.00,369,Wunderground v.1.15,2013-01-02 18:51:00,
2013-01-02 13:56:00,34.6,18.8,30.02,NW,321,4.0,13.0,52,0.00,,,0.00,392,Wunderground v.1.15,2013-01-02 18:56:00,
2013-01-02 14:01:00,34.8,18.9,30.03,NNW,340,6.0,7.0,52,0.00,,,0.00,385,Wunderground v.1.15,2013-01-02 19:01:00,
2013-01-02 14:06:00,34.8,18.9,30.03,NNW,339,0.0,12.0,52,0.00,,,0.00,374,Wunderground v.1.15,2013-01-02 19:06:00,
2013-01-02 14:11:00,34.9,19.0,30.02,NW,316,4.0,9.0,52,0.00,,,0.00,315,Wunderground v.1.15,2013-01-02 19:11:00,
2013-01-02 14:16:00,34.8,18.9,30.03,NW,313,6.0,15.0,52,0.00,,,0.00,216,Wunderground v.1.15,2013-01-02 19:16:00,
2013-01-02 14:21:00,34.7,18.9,30.03,North,10,4.0,11.0,52,0.00,,,0.00,156,Wunderground v.1.15,2013-01-02 19:21:00,
2013-01-02 14:26:00,34.6,18.8,30.03,North,350,9.0,14.0,52,0.00,,,0.00,132,Wunderground v.1.15,2013-01-02 19:26:00,
2013-01-02 14:31:00,34.6,18.8,30.03,WNW,302,8.0,12.0,52,0.00,,,0.00,146,Wunderground v.1.15,2013-01-02 19:31:00,
2013-01-02 14:36:00,34.5,18.7,30.03,NNW,333,6.0,13.0,52,0.00,,,0.00,160,Wunderground v.1.15,2013-01-02 19:36:00,
2013-01-02 14:41:00,34.4,18.6,30.03,North,355,2.0,9.0,52,0.00,,,0.00,142,Wunderground v.1.15,2013-01-02 19:41:00,
2013-01-02 14:46:00,34.4,19.0,30.03,NW,323,6.0,9.0,53,0.00,,,0.00,141,Wunderground v.1.15,2013-01-02 19:46:00,
2013-01-02 14:51:00,34.4,18.6,30.03,North,355,3.0,11.0,52,0.00,,,0.00,105,Wunderground v.1.15,2013-01-02 19:51:00,
2013-01-02 14:56:00,34.4,19.0,30.04,North,5,3.0,11.0,53,0.00,,,0.00,114,Wunderground v.1.15,2013-01-02 19:56:00,
2013-01-02 15:01:00,34.4,19.0,30.04,NNW,340,6.0,6.0,53,0.00,,,0.00,135,Wunderground v.1.15,2013-01-02 20:01:00,
2013-01-02 15:06:00,34.2,18.8,30.04,NNW,335,2.0,10.0,53,0.00,,,0.00,90,Wunderground v.1.15,2013-01-02 20:06:00,
2013-01-02 15:11:00,34.2,19.3,30.04,WNW,302,0.0,8.0,54,0.00,,,0.00,60,Wunderground v.1.15,2013-01-02 20:11:00,
2013-01-02 15:16:00,34.1,18.3,30.04,NNW,329,4.0,12.0,52,0.00,,,0.00,65,Wunderground v.1.15,2013-01-02 20:16:00,
2013-01-02 15:21:00,33.9,18.6,30.04,North,355,7.0,11.0,53,0.00,,,0.00,77,Wunderground v.1.15,2013-01-02 20:21:00,
2013-01-02 15:26:00,33.9,18.6,30.04,NNE,17,8.0,13.0,53,0.00,,,0.00,35,Wunderground v.1.15,2013-01-02 20:26:00,
2013-01-02 15:31:00,33.8,18.5,30.04,NW,322,2.0,9.0,53,0.00,,,0.00,35,Wunderground v.1.15,2013-01-02 20:31:00,
2013-01-02 15:36:00,33.7,18.4,30.04,NNE,15,4.0,10.0,53,0.00,,,0.00,33,Wunderground v.1.15,2013-01-02 20:36:00,
2013-01-02 15:41:00,33.6,18.3,30.05,NNW,331,1.0,7.0,53,0.00,,,0.00,32,Wunderground v.1.15,2013-01-02 20:41:00,
2013-01-02 15:46:00,33.5,18.2,30.05,NNW,340,2.0,7.0,53,0.00,,,0.00,26,Wunderground v.1.15,2013-01-02 20:46:00,
2013-01-02 15:52:00,33.4,18.5,30.05,NW,315,4.0,5.0,54,0.00,,,0.00,25,Wunderground v.1.15,2013-01-02 20:52:00,
2013-01-02 15:57:00,33.3,18.4,30.05,NW,304,0.0,10.0,54,0.00,,,0.00,23,Wunderground v.1.15,2013-01-02 20:57:00,
2013-01-02 16:02:00,33.2,18.3,30.05,NNW,331,1.0,4.0,54,0.00,,,0.00,19,Wunderground v.1.15,2013-01-02 21:02:00,
2013-01-02 16:07:00,33.1,18.7,30.06,NW,316,4.0,10.0,55,0.00,,,0.00,18,Wunderground v.1.15,2013-01-02 21:07:00,
2013-01-02 16:12:00,32.9,18.5,30.05,WNW,288,3.0,7.0,55,0.00,,,0.00,14,Wunderground v.1.15,2013-01-02 21:12:00,
2013-01-02 16:17:00,32.8,18.4,30.06,NW,310,10.0,10.0,55,0.00,,,0.00,12,Wunderground v.1.15,2013-01-02 21:17:00,
2013-01-02 16:22:00,32.7,18.7,30.06,NNW,331,0.0,8.0,56,0.00,,,0.00,11,Wunderground v.1.15,2013-01-02 21:22:00,
2013-01-02 16:27:00,32.6,18.6,30.06,NW,313,5.0,8.0,56,0.00,,,0.00,7,Wunderground v.1.15,2013-01-02 21:27:00,
2013-01-02 16:32:00,32.5,18.5,30.07,NNW,333,1.0,4.0,56,0.00,,,0.00,5,Wunderground v.1.15,2013-01-02 21:32:00,
2013-01-02 16:37:00,32.4,18.4,30.07,NW,315,6.0,8.0,56,0.00,,,0.00,0,Wunderground v.1.15,2013-01-02 21:37:00,
2013-01-02 16:42:00,32.2,18.2,30.07,NNW,331,4.0,7.0,56,0.00,,,0.00,0,Wunderground v.1.15,2013-01-02 21:42:00,
2013-01-02 16:47:00,32.1,18.2,30.07,NW,321,0.0,7.0,56,0.00,,,0.00,0,Wunderground v.1.15,2013-01-02 21:47:00,
2013-01-02 16:52:00,32.0,18.5,30.07,NW,312,6.0,7.0,57,0.00,,,0.00,0,Wunderground v.1.15,2013-01-02 21:52:00,
2013-01-02 16:57:00,31.9,18.4,30.08,NW,317,0.0,9.0,57,0.00,,,0.00,0,Wunderground v.1.15,2013-01-02 21:57:00,
2013-01-02 17:02:00,31.9,18.4,30.08,NW,313,0.0,6.0,57,0.00,,,0.00,0,Wunderground v.1.15,2013-01-02 22:02:00,
2013-01-02 17:07:00,31.8,18.7,30.08,NW,314,3.0,6.0,58,0.00,,,0.00,0,Wunderground v.1.15,2013-01-02 22:07:00,
2013-01-02 17:12:00,31.7,18.6,30.09,NW,304,0.0,6.0,58,0.00,,,0.00,0,Wunderground v.1.15,2013-01-02 22:12:00,
2013-01-02 17:17:00,31.6,18.5,30.09,WNW,298,2.0,13.0,58,0.00,,,0.00,0,Wunderground v.1.15,2013-01-02 22:17:00,
2013-01-02 17:22:00,31.6,18.5,30.09,NNW,338,0.0,3.0,58,0.00,,,0.00,0,Wunderground v.1.15,2013-01-02 22:22:00,
2013-01-02 17:27:00,31.5,18.4,30.09,NNW,329,4.0,4.0,58,0.00,,,0.00,0,Wunderground v.1.15,2013-01-02 22:27:00,
2013-01-02 17:32:00,31.5,18.4,30.09,NW,305,0.0,4.0,58,0.00,,,0.00,0,Wunderground v.1.15,2013-01-02 22:32:00,
2013-01-02 17:37:00,31.4,18.7,30.10,NW,308,1.0,4.0,59,0.00,,,0.00,0,Wunderground v.1.15,2013-01-02 22:37:00,
2013-01-02 17:42:00,31.3,18.6,30.10,NW,305,1.0,5.0,59,0.00,,,0.00,0,Wunderground v.1.15,2013-01-02 22:42:00,
2013-01-02 17:47:00,31.2,18.5,30.10,NW,304,0.0,5.0,59,0.00,,,0.00,0,Wunderground v.1.15,2013-01-02 22:47:00,
2013-01-02 17:52:00,31.2,18.5,30.10,NW,305,0.0,2.0,59,0.00,,,0.00,0,Wunderground v.1.15,2013-01-02 22:52:00,
2013-01-02 17:57:00,31.1,18.4,30.10,NW,305,0.0,3.0,59,0.00,,,0.00,0,Wunderground v.1.15,2013-01-02 22:57:00,
2013-01-02 18:02:00,31.0,17.9,30.11,NW,304,2.0,4.0,58,0.00,,,0.00,0,Wunderground v.1.15,2013-01-02 23:02:00,
2013-01-02 18:07:00,30.8,18.1,30.10,NW,304,1.0,4.0,59,0.00,,,0.00,0,Wunderground v.1.15,2013-01-02 23:07:00,
2013-01-02 18:12:00,30.7,18.4,30.11,NW,306,0.0,4.0,60,0.00,,,0.00,0,Wunderground v.1.15,2013-01-02 23:12:00,
2013-01-02 18:17:00,30.6,18.3,30.12,NW,308,0.0,4.0,60,0.00,,,0.00,0,Wunderground v.1.15,2013-01-02 23:17:00,
2013-01-02 18:22:00,30.5,18.3,30.11,NW,306,1.0,4.0,60,0.00,,,0.00,0,Wunderground v.1.15,2013-01-02 23:22:00,
2013-01-02 18:27:00,30.4,18.2,30.12,NW,306,0.0,4.0,60,0.00,,,0.00,0,Wunderground v.1.15,2013-01-02 23:27:00,
2013-01-02 18:32:00,30.3,18.5,30.12,NW,311,0.0,2.0,61,0.00,,,0.00,0,Wunderground v.1.15,2013-01-02 23:32:00,
2013-01-02 18:37:00,30.2,18.4,30.12,NW,311,0.0,2.0,61,0.00,,,0.00,0,Wunderground v.1.15,2013-01-02 23:37:00,
2013-01-02 18:42:00,30.1,17.9,30.12,NW,311,0.0,0.0,60,0.00,,,0.00,0,Wunderground v.1.15,2013-01-02 23:42:00,
2013-01-02 18:47:00,30.1,18.3,30.11,NW,311,0.0,1.0,61,0.00,,,0.00,0,Wunderground v.1.15,2013-01-02 23:47:00,
2013-01-02 18:52:00,30.0,18.2,30.11,NW,311,0.0,3.0,61,0.00,,,0.00,0,Wunderground v.1.15,2013-01-02 23:52:00,
2013-01-02 18:57:00,29.9,18.1,30.12,NW,311,0.0,3.0,61,0.00,,,0.00,0,Wunderground v.1.15,2013-01-02 23:57:00,
2013-01-02 19:02:00,29.8,18.0,30.12,NW,311,0.0,0.0,61,0.00,,,0.00,0,Wunderground v.1.15,2013-01-03 00:02:00,
2013-01-02 19:07:00,29.7,17.9,30.12,NW,311,0.0,1.0,61,0.00,,,0.00,0,Wunderground v.1.15,2013-01-03 00:07:00,
2013-01-02 19:12:00,29.7,17.9,30.13,NW,311,0.0,0.0,61,0.00,,,0.00,0,Wunderground v.1.15,2013-01-03 00:12:00,
2013-01-02 19:18:00,29.6,17.8,30.13,NW,311,0.0,2.0,61,0.00,,,0.00,0,Wunderground v.1.15,2013-01-03 00:18:00,
2013-01-02 19:23:00,29.5,17.7,30.13,NW,311,0.0,2.0,61,0.00,,,0.00,0,Wunderground v.1.15,2013-01-03 00:23:00,
2013-01-02 19:28:00,29.5,18.1,30.13,NW,311,0.0,2.0,62,0.00,,,0.00,0,Wunderground v.1.15,2013-01-03 00:28:00,
2013-01-02 19:33:00,29.4,18.0,30.13,NW,311,0.0,0.0,62,0.00,,,0.00,0,Wunderground v.1.15,2013-01-03 00:33:00,
2013-01-02 19:38:00,29.3,17.9,30.13,NW,311,0.0,3.0,62,0.00,,,0.00,0,Wunderground v.1.15,2013-01-03 00:38:00,
2013-01-02 19:43:00,29.2,18.2,30.13,NW,311,0.0,0.0,63,0.00,,,0.00,0,Wunderground v.1.15,2013-01-03 00:43:00,
2013-01-02 19:48:00,29.2,18.2,30.13,NW,311,0.0,1.0,63,0.00,,,0.00,0,Wunderground v.1.15,2013-01-03 00:48:00,
2013-01-02 19:53:00,29.1,18.1,30.13,NW,311,0.0,1.0,63,0.00,,,0.00,0,Wunderground v.1.15,2013-01-03 00:53:00,
2013-01-02 19:58:00,29.0,18.0,30.13,NW,311,0.0,1.0,63,0.00,,,0.00,0,Wunderground v.1.15,2013-01-03 00:58:00,
2013-01-02 20:03:00,28.9,17.9,30.13,NW,311,1.0,3.0,63,0.00,,,0.00,0,Wunderground v.1.15,2013-01-03 01:03:00,
2013-01-02 20:08:00,28.8,17.8,30.13,NW,311,0.0,3.0,63,0.00,,,0.00,0,Wunderground v.1.15,2013-01-03 01:08:00,
2013-01-02 20:13:00,28.7,17.7,30.13,NW,311,2.0,3.0,63,0.00,,,0.00,0,Wunderground v.1.15,2013-01-03 01:13:00,
2013-01-02 20:18:00,28.7,17.7,30.12,NW,312,0.0,4.0,63,0.00,,,0.00,0,Wunderground v.1.15,2013-01-03 01:18:00,
2013-01-02 20:23:00,28.6,17.6,30.12,NW,312,0.0,1.0,63,0.00,,,0.00,0,Wunderground v.1.15,2013-01-03 01:23:00,
2013-01-02 20:28:00,28.6,18.0,30.13,NW,311,0.0,4.0,64,0.00,,,0.00,0,Wunderground v.1.15,2013-01-03 01:28:00,
2013-01-02 20:33:00,28.5,17.9,30.13,NW,310,0.0,3.0,64,0.00,,,0.00,0,Wunderground v.1.15,2013-01-03 01:33:00,
2013-01-02 20:38:00,28.5,17.9,30.13,NW,310,0.0,3.0,64,0.00,,,0.00,0,Wunderground v.1.15,2013-01-03 01:38:00,
2013-01-02 20:43:00,28.5,17.9,30.13,NW,310,1.0,2.0,64,0.00,,,0.00,0,Wunderground v.1.15,2013-01-03 01:43:00,
2013-01-02 20:48:00,28.4,17.8,30.13,NW,310,0.0,3.0,64,0.00,,,0.00,0,Wunderground v.1.15,2013-01-03 01:48:00,
2013-01-02 20:53:00,28.4,17.8,30.14,NW,311,0.0,2.0,64,0.00,,,0.00,0,Wunderground v.1.15,2013-01-03 01:53:00,
2013-01-02 20:58:00,28.4,18.1,30.14,NW,309,0.0,3.0,65,0.00,,,0.00,0,Wunderground v.1.15,2013-01-03 01:58:00,
2013-01-02 21:03:00,28.3,18.0,30.14,WNW,303,2.0,6.0,65,0.00,,,0.00,0,Wunderground v.1.15,2013-01-03 02:03:00,
2013-01-02 21:08:00,28.3,18.0,30.14,NW,304,2.0,6.0,65,0.00,,,0.00,0,Wunderground v.1.15,2013-01-03 02:08:00,
2013-01-02 21:13:00,28.2,17.9,30.14,NW,304,0.0,4.0,65,0.00,,,0.00,0,Wunderground v.1.15,2013-01-03 02:13:00,
2013-01-02 21:18:00,28.2,17.9,30.14,NW,304,0.0,5.0,65,0.00,,,0.00,0,Wunderground v.1.15,2013-01-03 02:18:00,
2013-01-02 21:23:00,28.2,17.9,30.14,NW,307,0.0,4.0,65,0.00,,,0.00,0,Wunderground v.1.15,2013-01-03 02:23:00,
2013-01-02 21:29:00,28.1,17.8,30.14,NW,307,2.0,4.0,65,0.00,,,0.00,0,Wunderground v.1.15,2013-01-03 02:29:00,
2013-01-02 21:34:00,28.1,18.2,30.14,NW,307,0.0,2.0,66,0.00,,,0.00,0,Wunderground v.1.15,2013-01-03 02:34:00,
2013-01-02 21:39:00,28.0,18.1,30.14,NW,307,1.0,2.0,66,0.00,,,0.00,0,Wunderground v.1.15,2013-01-03 02:39:00,
2013-01-02 21:44:00,28.0,18.1,30.14,NW,309,0.0,6.0,66,0.00,,,0.00,0,Wunderground v.1.15,2013-01-03 02:44:00,
2013-01-02 21:49:00,27.9,18.4,30.14,NW,309,0.0,6.0,67,0.00,,,0.00,0,Wunderground v.1.15,2013-01-03 02:49:00,
2013-01-02 21:54:00,27.9,18.4,30.14,NW,311,2.0,6.0,67,0.00,,,0.00,0,Wunderground v.1.15,2013-01-03 02:54:00,
2013-01-02 21:59:00,27.9,18.4,30.15,NW,311,1.0,6.0,67,0.00,,,0.00,0,Wunderground v.1.15,2013-01-03 02:59:00,
2013-01-02 22:04:00,27.9,18.4,30.15,NW,311,0.0,2.0,67,0.00,,,0.00,0,Wunderground v.1.15,2013-01-03 03:04:00,
2013-01-02 22:09:00,27.8,18.3,30.15,NW,311,0.0,3.0,67,0.00,,,0.00,0,Wunderground v.1.15,2013-01-03 03:09:00,
2013-01-02 22:14:00,27.8,18.3,30.15,NW,307,1.0,5.0,67,0.00,,,0.00,0,Wunderground v.1.15,2013-01-03 03:14:00,
2013-01-02 22:19:00,27.8,18.3,30.15,NW,307,1.0,5.0,67,0.00,,,0.00,0,Wunderground v.1.15,2013-01-03 03:19:00,
2013-01-02 22:24:00,27.7,18.2,30.15,NW,309,0.0,5.0,67,0.00,,,0.00,0,Wunderground v.1.15,2013-01-03 03:24:00,
2013-01-02 22:29:00,27.7,18.2,30.15,NW,312,2.0,5.0,67,0.00,,,0.00,0,Wunderground v.1.15,2013-01-03 03:29:00,
2013-01-02 22:36:00,27.6,18.4,30.15,NW,306,0.0,5.0,68,0.00,,,0.00,0,Wunderground v.1.15,2013-01-03 03:36:00,
2013-01-02 22:41:00,27.6,18.4,30.16,NW,306,0.0,1.0,68,0.00,,,0.00,0,Wunderground v.1.15,2013-01-03 03:41:00,
2013-01-02 22:46:00,27.6,18.4,30.16,NW,306,0.0,1.0,68,0.00,,,0.00,0,Wunderground v.1.15,2013-01-03 03:46:00,
2013-01-02 22:51:00,27.5,18.3,30.16,NW,309,0.0,5.0,68,0.00,,,0.00,0,Wunderground v.1.15,2013-01-03 03:51:00,
2013-01-02 22:56:00,27.5,18.3,30.16,NW,311,1.0,5.0,68,0.00,,,0.00,0,Wunderground v.1.15,2013-01-03 03:56:00,
2013-01-02 23:01:00,27.4,18.6,30.16,NW,306,0.0,6.0,69,0.00,,,0.00,0,Wunderground v.1.15,2013-01-03 04:01:00,
2013-01-02 23:06:00,27.4,18.6,30.17,NW,312,4.0,6.0,69,0.00,,,0.00,0,Wunderground v.1.15,2013-01-03 04:06:00,
2013-01-02 23:11:00,27.4,18.2,30.16,NW,307,2.0,3.0,68,0.00,,,0.00,0,Wunderground v.1.15,2013-01-03 04:11:00,
2013-01-02 23:16:00,27.4,18.6,30.17,NW,316,0.0,7.0,69,0.00,,,0.00,0,Wunderground v.1.15,2013-01-03 04:16:00,
2013-01-02 23:21:00,27.4,18.6,30.16,NW,325,0.0,7.0,69,0.00,,,0.00,0,Wunderground v.1.15,2013-01-03 04:21:00,
2013-01-02 23:26:00,27.4,18.2,30.17,NW,315,2.0,7.0,68,0.00,,,0.00,0,Wunderground v.1.15,2013-01-03 04:26:00,
2013-01-02 23:31:00,27.4,18.2,30.17,WNW,301,0.0,3.0,68,0.00,,,0.00,0,Wunderground v.1.15,2013-01-03 04:31:00,
2013-01-02 23:36:00,27.3,18.1,30.17,NW,306,0.0,5.0,68,0.00,,,0.00,0,Wunderground v.1.15,2013-01-03 04:36:00,
2013-01-02 23:41:00,27.3,18.1,30.17,NW,311,0.0,5.0,68,0.00,,,0.00,0,Wunderground v.1.15,2013-01-03 04:41:00,
2013-01-02 23:46:00,27.3,18.5,30.17,NW,318,0.0,5.0,69,0.00,,,0.00,0,Wunderground v.1.15,2013-01-03 04:46:00,
2013-01-02 23:51:00,27.3,18.5,30.17,NW,317,3.0,5.0,69,0.00,,,0.00,0,Wunderground v.1.15,2013-01-03 04:51:00,
2013-01-02 23:56:00,27.2,18.0,30.17,NW,319,2.0,5.0,68,0.00,,,0.00,0,Wunderground v.1.15,2013-01-03 04:56:00,